Regional Weather Roundup
Issued by NWS

Home | Current Version | Previous Version | Graphics & Text | Print | Product List | Glossary On
Versions: 1 2 3 4 5 6 7 8 9 10 11 12 13 14 15 16 17 18 19 20 21 22 23 24 25 26 27 28 29 30 31 32 33 34 35 36 37 38 39 40 41 42 43 44 45 46 47 48 49 50
144
ASUS43 KOAX 300202
RWRNE

WEATHER ROUNDUP FOR NEBRASKA
NATIONAL WEATHER SERVICE OMAHA NE
900 PM CDT FRI APR 29 2016

NOTES: SATELLITE DATA IS BEING USED TO AUGMENT CLOUD COVER ABOVE
       12000 FEET.
       "FAIR" INDICATES FEW OR NO CLOUDS BELOW 12,000 FEET WITH NO
       SIGNIFICANT WEATHER AND/OR OBSTRUCTIONS TO VISIBILITY.

  * THESE STATIONS DO NOT REPORT WEATHER SUCH AS RAIN...SNOW OR FOG.

NEZ001>004-019>022-054>056-300300-
NEBRASKA PANHANDLE

CITY           SKY/WX    TMP DP  RH WIND       PRES   REMARKS
SCOTTSBLUFF    LGT SNOW  34  32  92 CALM      29.96R FOG
ALLIANCE       LGT SNOW  33  33 100 NE8       29.94S FOG     WCI  26
CHADRON        CLOUDY    41  35  79 NE13      29.98S
KIMBALL        LGT SNOW  33  33 100 N7        29.91F WCI  26
SIDNEY         LGT SNOW  33  31  92 N10       29.91S FOG     WCI  25
$$

NEZ057>060-069>072-079>082-300300-
SOUTHWEST NEBRASKA

CITY           SKY/WX    TMP DP  RH WIND       PRES   REMARKS
NORTH PLATTE   LGT RAIN  40  38  93 NE12      29.90R WCI  33
IMPERIAL       LGT SNOW  33  32  96 N15       29.90F FOG     WCI  23
LEXINGTON      CLOUDY    41  38  91 NE20G28   29.86S
MCCOOK         HVY RAIN  41  39  93 E8        29.91R FOG
$$

NEZ005>010-023>029-035>040-094-300300-
NORTH CENTRAL NEBRASKA

CITY           SKY/WX    TMP DP  RH WIND       PRES   REMARKS
VALENTINE      CLOUDY    40  38  93 NE14      30.00F WCI  32
AINSWORTH      DRIZZLE   39  38  97 NE14G21   29.99S WCI  31
BROKEN BOW     CLOUDY    41  39  93 NE20G26   29.91F FOG
O`NEILL        CLOUDY    42  40  94 NE7       30.02S FOG
ORD            CLOUDY    42  39  89 NE14      29.94F
$$

NEZ041-046>049-061>064-073>077-083>087-300300-
SOUTH CENTRAL NEBRASKA

CITY           SKY/WX    TMP DP  RH WIND       PRES   REMARKS
GRAND ISLAND   CLOUDY    43  40  89 NE22G28   29.89F
AURORA         CLOUDY    44  42  95 NE24G31   29.87F
HASTINGS       CLOUDY    43  40  89 NE20G28   29.85F
KEARNEY *      CLOUDY    43  37  81 NE23G29   29.87F
YORK           CLOUDY    45  41  87 NE16G22   29.88F
$$

NEZ011>018-030>034-042>045-300300-
NORTHEAST NEBRASKA

CITY           SKY/WX    TMP DP  RH WIND       PRES   REMARKS
NORFOLK        CLOUDY    44  39  82 E16G23    29.96F
ALBION         CLOUDY    43  40  89 NE14      29.96F
BLAIR          CLOUDY    47  42  84 NE17G26   29.94F
COLUMBUS *     CLOUDY    45  36  70 NE21G26   29.94F
FREMONT        CLOUDY    46  42  84 E16G22    29.94F
TEKAMAH        CLOUDY    47  41  80 E16       29.97F
$$

NEZ050>053-065>068-078-088>093-300300-
SOUTHEAST NEBRASKA

CITY           SKY/WX    TMP DP  RH WIND       PRES   REMARKS
LINCOLN        CLOUDY    48  43  82 E18G24    29.92F
OMAHA EPPLEY   CLOUDY    48  42  80 NE9G17    29.96F
BEATRICE       CLOUDY    48  45  87 E18G24    29.85F
FALLS CITY     CLOUDY    50  46  86 E14G25    29.85F
NEBRASKA CITY  CLOUDY    48  45  89 NE15G24   29.89F
$$

NEZ044-045-051>053-067-300300-
OMAHA AREA

CITY           SKY/WX    TMP DP  RH WIND       PRES   REMARKS
OMAHA EPPLEY   CLOUDY    48  42  80 NE9G17    29.96F
BLAIR          CLOUDY    47  42  84 NE17G26   29.94F
FREMONT        CLOUDY    46  42  84 E16G22    29.94F
OFFUTT AFB     CLOUDY    48  44  84 NE9G22    29.93F
WAHOO          CLOUDY    47  43  84 NE17      29.92F
$$




USA.gov is the U.S. government's official web portal to all federal, state and local government web resources and services.